This demonstration page uses our WeatherBlox Daily Observations layout. Learn more.

Left ArrowRight Arrow

44.8408, -93.29828

Hourly Observations for September 24, 2016

Temp ( °F °C ) Dew Point ( °F °C ) Humidity (%) Winds ( mph kmh ) Pressure ( in mb ) Visibility ( mi km ) Precip ( " mm )
12:49 am 00:49 Cloudy 64 18 61 16 88 88 SE 12 19 30.06 1018 10 16 0.00 0.00
12:53 am 00:53 Cloudy 65 18.3 60 15.6 84 84 SE 15 24 30.07 1018 10 16 0.00 0.00
1:53 am 01:53 Cloudy 65 18.3 60 15.6 84 84 SE 13 20 30.08 1019 10 16 0.00 0.00
2:53 am 02:53 Cloudy 65 18.3 60 15.6 84 84 SE 10 17 30.09 1019 10 16 0.00 0.00
3:53 am 03:53 Cloudy 65 18.3 61 16.1 87 87 SE 9 15 30.09 1019 9 14 0.00 0.00
4:53 am 04:53 Cloudy 65 18.3 60 15.6 84 84 SE 12 19 30.09 1019 9 14 0.00 0.00
5:53 am 05:53 Cloudy 64 17.8 60 15.6 87 87 SE 10 17 30.09 1019 10 16 0.00 0.00
6:53 am 06:53 Cloudy 64 17.8 60 15.6 87 87 SE 12 19 30.10 1019 10 16 0.00 0.00
7:06 am 07:06 Cloudy 64 18 61 16 88 88 SE 10 17 30.06 1018 9 14 0.00 0.00
7:53 am 07:53 Cloudy 64 17.8 60 15.6 87 87 SE 13 20 30.10 1019 8 13 0.00 0.00
8:53 am 08:53 Cloudy with Mist and Fog 63 17.2 60 15.6 90 90 ESE 13 20 30.09 1019 5 8 0.00 0.00
9:53 am 09:53 Cloudy with Mist and Fog 64 17.8 61 16.1 90 90 SE 14 22 30.09 1019 5 8 0.00 0.00
10:53 am 10:53 Cloudy 65 18.3 61 16.1 87 87 SE 15 24 30.08 1019 7 11 0.00 0.00
11:53 am 11:53 Cloudy 67 19.4 62 16.7 84 84 SE 15 24 30.07 1018 8 13 0.00 0.00
12:53 pm 12:53 Cloudy 68 20 63 17.2 84 84 SE 13 20 30.06 1018 9 14 0.00 0.00
1:53 pm 13:53 Cloudy 70 21.1 63 17.2 79 79 ESE 15 24 30.03 1017 9 14 0.00 0.00
2:53 pm 14:53 Cloudy 71 21.7 64 17.8 79 79 ESE 17 28 30.01 1016 10 16 0.00 0.00
3:37 pm 15:37 Cloudy 72 22.2 64 17.8 76 76 ESE 20 31 29.97 1015 10 16 0.00 0.00
3:53 pm 15:53 Cloudy 71 21.7 64 17.8 79 79 ESE 20 31 29.99 1016 10 16 0.00 0.00
4:53 pm 16:53 Cloudy 71 21.7 63 17.2 76 76 SE 18 30 29.99 1016 10 16 0.00 0.00
5:14 pm 17:14 Cloudy 70 21 63 17 78 78 ESE 20 31 29.97 1015 9 14 0.00 0.00
5:53 pm 17:53 Cloudy 69 20.6 63 17.2 81 81 ESE 18 30 29.99 1016 9 14 0.00 0.00
6:00 pm 18:00 Cloudy 70 21 63 17 78 78 SE 17 28 29.97 1015 9 14 0.00 0.00
6:53 pm 18:53 Cloudy 68 20 63 17.2 84 84 SE 12 19 30.01 1016 9 14 0.00 0.00
7:53 pm 19:53 Cloudy 68 20 62 16.7 81 81 SE 16 26 30.00 1016 8 13 0.00 0.00
8:53 pm 20:53 Cloudy 68 20 62 16.7 81 81 SE 15 24 29.98 1015 10 16 0.00 0.00
9:53 pm 21:53 Cloudy 68 20 62 16.7 81 81 SE 16 26 29.97 1015 9 14 0.00 0.00
10:53 pm 22:53 Cloudy 68 20 63 17.2 84 84 SE 18 30 29.96 1015 9 14 0.00 0.00
11:53 pm 23:53 Cloudy 68 20 63 17.2 84 84 SSE 13 20 29.98 1015 9 14 0.00 0.00

Powered by AerisWeather